Location: Marcé
(47.5801°N, 0.3280°W)
Time: 21:23:30
(UTC+01:00)

Vanguard 3 - Pass Details

Date: 15 December 2021
Orbit: 508 x 3260 km, 33.3° (Epoch: 17 January)

Event Time Altitude Azimuth Distance (km) Brightness Sun altitude
Rises 00:19:26 0° 208° (SSW) 5,238 - -64.6°
Reaches altitude 10° 00:23:04 10° 198° (SSW) 4,617 - -64.8°
Maximum altitude 00:34:24 30° 144° (SE) 4,099 - -65.3°
Exits shadow 00:48:56 11° 94° (E) 6,092 11.5 -65.6°
Drops below altitude 10° 00:49:21 10° 93° (E) 6,167 11.5 -65.6°
Sets 00:55:10 0° 85° (E) 7,229 12.0 -65.7°
